Voltar ao catálogo

STARLINK-31821

AtivoComunicaçõesVLEO
NORAD 59737·PAYLOAD·🇺🇸 United States

Lançado May 13, 2024 de Cape Canaveral Space Force Station

Loading…

Próximas Passagens (próximas 24 horas)

TLE

AtualizadoSource: CelesTrak SupGP

Época: Sep 14, 2026, 22:23 UTC

1 59737C 24090H   26257.93312500 -.00012431  00000+0 -45020-3 0  2574
2 59737  43.0026 194.8369 0001303 266.4826  16.2750 15.27589174    10

Acompanhe STARLINK-31821 em tempo real com AllMySat

Download on the App Store